Location: ?????
(55.6500°N, 37.2500°E)
Time: 17:19:26
(UTC+00:00)

Ariane Rocket - Pass Details

Date: 19 May 2025
Orbit: 755 x 764 km, 98.5° (Epoch: 20 June)

Event Time Altitude Azimuth Distance (km) Brightness Sun altitude
Exits shadow 19:36:58 - 193° (SSW) 2,557 5.3 -10.8°
Reaches altitude 10° 19:37:42 10° 196° (SSW) 2,293 5.0 -10.9°
Maximum altitude 19:42:22 37° 264° (W) 1,172 4.1 -11.2°
Drops below altitude 10° 19:47:06 10° 332° (NNW) 2,314 7.1 -11.4°
Sets 19:49:36 0° 340° (NNW) 3,245 8.4 -11.6°
